Location: *
(45.9500°N, 9.0833°E)
Time: 00:02:49
(UTC+00:00)

Tiros 1 despin weight - Pass Details

Date: 23 June 2021
Orbit: 593 x 642 km, 48.2° (Epoch: 02 August)

Event Time Altitude Azimuth Distance (km) Brightness Sun altitude
Rises 06:29:01 0° 273° (W) 2,828 ? 27.3°
Reaches altitude 10° 06:31:19 10° 277° (W) 1,924 ? 27.7°
Maximum altitude 06:35:42 64° 359° (N) 658 ? 28.5°
Drops below altitude 10° 06:40:05 10° 81° (E) 1,927 ? 29.2°
Sets 06:42:24 0° 85° (E) 2,833 ? 29.6°
